Tracking 17154 objects as of 31-July-2015
HD Live streaming from Space Station

THORAD AGENA D DEB

Track THORAD AGENA D DEB now!
10-day predictions
THORAD AGENA D DEB is classified as:


NORAD ID: 4935
Int'l Code: 1970-025GB
Perigee: 913.4 km
Apogee: 1,010.8 km
Inclination: 99.9 °
Period: 104.2 minutes
Semi major axis: 7333 km
RCS: 0.0346 m2 (small)
Launch date: April 8, 1970
Source: United States (US)

Note: This is SATELLITE DEBRIS
Your satellite tracking list
Your tracking list is empty





NASA's NSSDC Master Catalog

Two Line Element Set (TLE):
1 04935U 70025GB  15210.63647664  .00000290  00000-0  30779-3 0  9996
2 04935 099.8805 083.0454 0066378 329.1186 060.3628 13.82527114267549

Source of the keplerian elements: AFSPC

N2YO: 315